[[{"header":{"parameterUnit":"m.s-1","parameterCategory":1,"la1":30.2992,"la2":30.254,"lo1":-89.0895,"lo2":-89.0443,"dy":0.0025,"dx":0.0025,"nx":19,"ny":19,"refTime":"2026-04-07T09:00:00:Z","depth":0,"parameterNumber":2,"parameterNumberName":"U-component_of_WINDS"},"data":[0,0,0,-3.8333,-3.8337,-3.8498,-3.8498,-3.8751,-3.8753,0,0,0,0,0,0,0,0,0,0,0,-3.8311,-3.8314,-3.8333,-3.8338,-3.8498,-3.8498,-3.875,-3.8753,0,0,0,0,0,0,0,0,0,0,0,-3.831,-3.8313,-3.8316,-3.8338,-3.8498,-3.8498,-3.8749,-3.8613,0,0,0,0,0,0,0,0,0,0,-3.8449,-3.8453,-3.8312,-3.8316,-3.834,-3.8498,-3.8498,-3.8605,-3.8621,-3.8697,0,-3.8768,0,-3.8765,-3.8773,-3.8774,0,0,0,-3.832,-3.844,-3.8459,-3.8317,-3.8341,-3.8497,-3.8421,-3.8614,-3.8632,-3.8718,-3.8771,-3.8779,-3.8769,-3.8775,-3.8776,-3.9266,-3.9269,0,0,-3.8311,-3.8355,-3.8447,-3.8472,-3.8446,-3.8416,-3.8426,-3.8624,-3.8686,-3.8772,-3.8785,-3.8773,-3.8777,-3.8779,-3.9263,-3.9267,0,0,0,-3.8298,-3.835,-3.8363,-3.8463,-3.8488,-3.8421,-3.8432,-3.8677,-3.8678,-3.8787,-3.8776,-3.8778,-3.8782,-3.9259,-3.9264,-3.9463,0,0,0,-3.8292,-3.8341,-3.836,-3.8389,-3.8485,-3.8584,-3.8482,-3.8664,-3.8685,-3.8775,-3.8778,-3.8785,-3.9256,-3.9262,-3.945,-3.9553,0,0,0,-3.8292,-3.8341,-3.8372,-3.8391,-3.8461,-3.858,-3.8591,-3.8667,-3.8679,-3.8774,-3.8785,-3.9253,-3.9261,-3.9439,-3.9534,-3.9698,0,0,0,-3.8307,-3.8548,-3.8376,-3.8641,-3.846,-3.8699,-3.8589,-3.8765,-3.887,-3.878,-3.9256,-3.9264,-3.9435,-3.9522,-3.9686,-3.9849,-3.9919,0,0,-3.8635,-3.8589,-3.874,-3.8592,-3.8873,-3.8671,-3.8981,-3.9037,-3.9007,-3.9182,-3.9193,-3.9455,-3.9532,-3.9696,-4.0285,-4.0341,0,0,0,-3.886,-3.8971,-3.9035,-3.9135,-3.918,-3.923,-3.9231,-3.9252,-3.9398,-3.9104,-3.9553,-3.9598,-3.9693,-3.9769,-3.9817,-3.9898,-3.9299,-3.9298,-3.9297,-3.9394,-3.9338,-3.9588,-3.9553,-3.9651,-3.9649,-3.9725,-3.9753,-3.9671,-3.9778,-3.9832,-4.0196,-4.0286,-4.0322,-4.0407,-3.9907,-3.9908,-3.9909,-3.9909,-3.9875,-4.0026,-3.9906,-4.0106,-4.0048,-4.0216,-4.0223,-4.0159,-4.031,-4.015,-4.023,-4.0067,-4.0385,-4.0457,-3.9924,-3.9921,-3.992,-3.9918,-3.9917,-4.0225,-4.0288,-4.0304,-4.0443,-4.0556,-4.0511,-4.0661,-4.0601,-4.0546,-4.0625,-4.0679,-4.0676,-4.0671,-4.0653,-4.0654,-4.0656,-4.0657,-4.0658,-4.0658,-4.0584,-4.0596,-4.0729,-4.0795,-4.0851,-4.0918,-4.0916,-4.0971,-4.1017,-4.0963,-4.0963,-4.0875,-4.0422,-4.0315,-4.0678,-4.0674,-4.0672,-4.067,-4.0669,-4.1107,-4.0978,-4.1183,-4.1239,-4.1312,-4.1431,-4.1348,-4.1466,-4.1502,-4.1579,-4.147,-4.1143,-4.1093,-4.1055,-4.0966,-4.1476,-4.1476,-4.1476,-4.1476,-4.1408,-4.1373,-4.1569,-4.1664,-4.1748,-4.1694,-4.1932,-4.1933,-4.1914,-4.1934,-4.1849,-4.1723,-4.1686,-4.1659,-4.1607,-4.1524,-4.2165,-4.2165,-4.2166,-4.1729,-4.1699,-4.1913,-4.1888,-4.194,-4.1987,-4.221,-4.2327,-4.2278,-4.2193,-4.195,-4.1921,-4.1716,-4.1651,-4.157,-4.1491,-4.1336,0,0]},{"header":{"parameterUnit":"m.s-1","parameterCategory":1,"la1":30.2992,"la2":30.254,"lo1":-89.0895,"lo2":-89.0443,"dy":0.0025,"dx":0.0025,"nx":19,"ny":19,"refTime":"2026-04-07T09:00:00:Z","depth":0,"parameterNumber":3,"parameterNumberName":"V-component_of_WINDS"},"data":[0,0,0,-3.1189,-3.1191,-3.1236,-3.1236,-3.1307,-3.1307,0,0,0,0,0,0,0,0,0,0,0,-3.1185,-3.1185,-3.1189,-3.1191,-3.1236,-3.1237,-3.1307,-3.1307,0,0,0,0,0,0,0,0,0,0,0,-3.1184,-3.1185,-3.1186,-3.1191,-3.1236,-3.1237,-3.1306,-3.1267,0,0,0,0,0,0,0,0,0,0,-3.1221,-3.1225,-3.1185,-3.1186,-3.1191,-3.1236,-3.1237,-3.1265,-3.127,-3.1291,0,-3.1315,0,-3.1312,-3.1313,-3.1313,0,0,0,-3.1184,-3.1222,-3.1226,-3.1186,-3.1192,-3.1236,-3.1214,-3.1268,-3.1273,-3.1298,-3.1315,-3.1318,-3.1313,-3.1314,-3.1314,-3.1465,-3.1466,0,0,-3.1181,-3.1197,-3.1223,-3.123,-3.1225,-3.1212,-3.1215,-3.1271,-3.129,-3.1316,-3.1319,-3.1315,-3.1314,-3.1315,-3.1464,-3.1465,0,0,0,-3.1179,-3.1196,-3.1199,-3.1227,-3.1235,-3.1214,-3.1217,-3.1288,-3.1288,-3.132,-3.1315,-3.1315,-3.1316,-3.1463,-3.1464,-3.153,0,0,0,-3.1177,-3.1194,-3.1198,-3.1208,-3.1234,-3.1262,-3.1234,-3.1284,-3.129,-3.1315,-3.1315,-3.1316,-3.1461,-3.1463,-3.1526,-3.1558,0,0,0,-3.1179,-3.1194,-3.1204,-3.1209,-3.1229,-3.1261,-3.1264,-3.1285,-3.1287,-3.1313,-3.1317,-3.1461,-3.1463,-3.1522,-3.1552,-3.1602,0,0,0,-3.1185,-3.1262,-3.1205,-3.129,-3.1229,-3.1302,-3.1263,-3.1317,-3.1347,-3.1315,-3.1462,-3.1464,-3.1521,-3.1548,-3.1598,-3.1646,-3.1668,0,0,-3.1291,-3.1276,-3.1324,-3.1274,-3.1362,-3.1294,-3.139,-3.1403,-3.139,-3.144,-3.1444,-3.1527,-3.1552,-3.1601,-3.1787,-3.1804,0,0,0,-3.1363,-3.1398,-3.1418,-3.1448,-3.1459,-3.1471,-3.1467,-3.1472,-3.1513,-3.142,-3.1559,-3.1573,-3.1601,-3.1623,-3.1638,-3.1661,-3.1475,-3.1475,-3.1475,-3.1536,-3.1516,-3.1594,-3.158,-3.161,-3.1604,-3.1626,-3.163,-3.1602,-3.1635,-3.1649,-3.1764,-3.1791,-3.1802,-3.1826,-3.1674,-3.1674,-3.1674,-3.1674,-3.1689,-3.1735,-3.1695,-3.1756,-3.1734,-3.1785,-3.1783,-3.176,-3.1804,-3.1752,-3.1776,-3.1721,-3.1822,-3.1842,-3.1679,-3.1678,-3.1678,-3.1677,-3.1677,-3.18,-3.1818,-3.1822,-3.1863,-3.1896,-3.1878,-3.1921,-3.19,-3.188,-3.1903,-3.1915,-3.1914,-3.1909,-3.1911,-3.1911,-3.1912,-3.1912,-3.1912,-3.1912,-3.1912,-3.1915,-3.1955,-3.1973,-3.1989,-3.2006,-3.2001,-3.2016,-3.2026,-3.2007,-3.2007,-3.1974,-3.1836,-3.1802,-3.1919,-3.1917,-3.1917,-3.1916,-3.1916,-3.2073,-3.2033,-3.2095,-3.2111,-3.2129,-3.2163,-3.2135,-3.2166,-3.2175,-3.2196,-3.2158,-3.2061,-3.2043,-3.2031,-3.2002,-3.2163,-3.2163,-3.2163,-3.2163,-3.2166,-3.2155,-3.2212,-3.2238,-3.2262,-3.2242,-3.231,-3.2307,-3.2296,-3.23,-3.2274,-3.2234,-3.2222,-3.2211,-3.2195,-3.2168,-3.2368,-3.2368,-3.2368,-3.2263,-3.2253,-3.2316,-3.2306,-3.2319,-3.233,-3.2393,-3.2424,-3.2404,-3.2376,-3.2302,-3.2294,-3.2229,-3.2209,-3.2179,-3.2155,-3.2104,0,0]}]]